User: anonymous   Login
Location: Unspecified
(0.0000°N, 0.0000°E)
Time: 00:00:14
(UTC+00:00)
Language:

NINGXIA-1 7 - Orbit

View from above orbital plane
View from above orbital plane
View from above satellite
View from above satellite

Ground track
Ground track

The orbit is defined by the following mean orbital elements,

1 49019U          26145.63427081 +.00000000 +00000-0 +15626-3 0 00008
2 49019  45.0038 329.2203 0006476 133.4105 226.7271 14.08547980    09
Epoch (UTC): 25 May 2026 15:13:20
Eccentricity: 0.0006476
inclination: 45.0038°
perigee height: 860 km
apogee height: 869 km
right ascension of ascending node: 329.2203°
argument of perigee: 133.4105°
revolutions per day: 14.08547980
mean anomaly at epoch: 226.7271°

The dashed part of the orbit path shows where the satellite is in the earth's shadow,  

DLR